Location: Muenchen
(48.1800°N, 11.5800°E)
Time: 19:18:21
(UTC+01:00)

ISS - Visible Passes

Search period start: 27 November 2014 00:00
Search period end: 07 December 2014 00:00
Orbit: 407 x 417 km, 51.6° (Epoch: 27 November)

Date Brightness Start Highest point End Pass type
(mag) Time Alt. Az. Time Alt. Az. Time Alt. Az.
27 Nov -1.2 05:03:37 24° SE 05:03:37 24° SE 05:05:05 10° SE visible
27 Nov -0.9 06:37:03 10° WSW 06:37:54 11° SW 06:38:45 10° SSW visible
28 Nov -1.2 05:48:56 17° SSW 05:48:56 17° SSW 05:50:35 10° S visible
29 Nov -0.2 05:01:27 10° SSE 05:01:27 10° SSE 05:01:29 10° SSE visible
